Location: Paderno d�Adda
(45.6667°N, 9.4333°E)
Time: 12:54:48
(UTC+00:00)

SJ-6B - Pass Details

Date: 19 September 2020
Orbit: 511 x 580 km, 97.6° (Epoch: 30 October)

Event Time Altitude Azimuth Distance (km) Brightness Sun altitude
Exits shadow 19:16:43 35° 179° (S) 840 3.5 -19.8°
Maximum altitude 19:18:11 75° 257° (WSW) 535 2.7 -20.0°
Drops below altitude 10° 19:21:57 10° 344° (NNW) 1,754 5.9 -20.6°
Sets 19:24:05 0° 346° (NNW) 2,653 6.9 -21.0°
